SCP
0 0 0 0 0 0 0 0 0 0 0 0 0 0 0 0 0 -0 -0 -0 -0 0 0 0 0 0 0 0 0 0 0 -0
0 0 0 0 0 0 0 0 0 0 0 0 0 0 0 0 0 0 -0 -0 -0 -0 0 0 0 0 0 0 0 0 0 0
0 0 0 0 0 0 0 0 0 0 0 0 0 0 0 0 0 0 -0 -0 -0 -0 -0 0 0 0 0 0 0 0 0 0
0 0 0 0 0 0 0 0 0 0 0 0 0 0 0 0 0 0 0 -0 -0 -0 -0 0 0 -0 -0 0 0 0 1 0
0 0 0 0 0 0 0 0 0 0 0 0 0 0 0 0 0 0 0 0 0 -0 -0 -0 -0 0 -0 -0 0 0 0 0
0 0 0 0 0 0 0 0 0 0 0 0 0 0 0 0 0 0 0 0 0 0 0 0 0 0 0 -0 0 0 0 0
0 0 0 0 0 0 0 0 0 0 0 0 0 0 1 1 0 0 1 1 0 0 0 0 0 0 0 0 -0 -0 0 0
0 0 0 0 0 0 0 0 0 0 0 0 1 1 0 0 0 0 1 1 1 1 0 0 0 0 0 0 0 0 0 0
0 0 0 0 0 0 0 0 0 0 0 0 1 1 0 0 0 0 0 0 0 0 0 1 1 0 0 -0 1 0 0 0
0 0 0 0 1 0 0 0 0 0 2 1 0 0 0 0 0 0 0 0 0 0 0 0 0 1 1 1 1 1 1 1
0 0 0 0 1 1 0 0 1 1 1 0 0 0 0 0 0 0 0 0 0 0 0 0 0 0 2 2 1 1 2 5
0 0 0 0 0 0 1 0 0 1 0 0 0 1 0 0 0 0 0 0 0 0 0 0 0 0 0 0 0 1 1 1
0 0 0 0 0 0 0 0 1 0 0 0 0 1 0 0 0 0 0 0 0 0 0 0 0 0 0 0 0 0 0 0
0 0 0 0 0 0 0 1 0 0 1 0 0 0 0 0 0 0 0 0 0 0 0 0 0 0 0 0 0 0 0 0
1 1 0 0 0 0 0 0 0 0 0 0 0 0 0 0 0 0 0 0 0 0 0 0 0 0 0 0 0 0 0 0
0 0 0 0 0 0 0 0 0 0 0 0 0 0 0 0 0 0 0 0 0 0 0 0 0 0 0 0 0 0 0 0
0 0 0 0 0 0 0 0 0 0 0 0 0 0 0 0 0 0 0 0 0 0 0 0 0 0 0 0 0 0 0 0
0 0 0 0 0 0 0 0 0 0 0 0 0 0 0 0 0 0 0 0 0 0 0 0 0 0 0 0 0 0 0 0
0 0 0 0 0 0 0 0 0 0 0 0 0 0 0 0 0 0 0 0 0 0 0 0 0 0 0 0 0 0 0 0
Wind_Speed_500mb
34 39 47 46 48 46 43 35 26 23 27 17 19 9 19 27 38 56 65 68 69 69 70 68 66 64 62 60 62 61 61 62
45 33 39 42 36 40 32 45 38 33 32 15 24 17 12 16 31 48 62 67 66 66 69 70 70 66 63 64 67 65 61 62
29 41 47 29 30 37 36 38 32 31 33 23 27 3 7 9 18 39 52 65 67 63 64 68 66 65 64 66 70 67 64 61
41 39 42 50 48 44 32 46 37 29 28 15 15 1 12 11 5 20 50 59 62 62 60 58 62 63 63 60 65 75 70 66
36 22 24 37 45 51 46 35 41 33 33 24 19 11 14 14 11 9 30 43 53 54 58 61 62 62 61 64 62 65 76 71
30 36 32 39 47 49 49 37 37 40 43 30 17 2 12 15 11 8 19 35 45 49 50 51 52 56 60 56 57 60 61 64
42 27 26 40 41 50 50 49 44 37 44 39 28 6 14 11 11 13 13 20 32 37 37 39 41 41 45 47 50 52 59 63
30 36 30 32 41 39 49 50 44 43 32 4 18 13 9 9 12 15 14 10 9 10 19 27 31 35 38 43 46 47 55 54
27 27 34 39 37 35 30 33 39 44 39 13 14 18 15 11 17 16 15 13 9 6 12 18 19 27 33 34 37 41 41 42
17 15 32 9 6 11 20 10 8 4 16 21 27 27 24 18 14 15 13 11 10 7 5 15 26 20 24 28 32 35 35 37
18 24 14 17 14 14 27 20 4 4 16 28 26 26 24 19 14 13 12 12 12 13 10 10 9 21 25 19 22 25 29 31
20 25 25 24 17 3 7 17 15 13 21 27 18 11 5 12 16 17 16 14 14 14 13 14 16 15 22 27 30 36 34 32
25 22 12 13 4 8 15 8 14 14 16 18 10 5 28 19 17 16 18 17 19 19 18 16 10 12 16 17 16 24 32 32
25 23 16 22 8 8 9 11 17 17 15 26 33 33 27 23 16 14 16 15 16 18 20 19 18 14 17 16 16 14 13 18
9 8 10 17 18 13 7 14 26 29 26 28 28 28 25 22 18 16 13 15 14 15 17 16 18 14 16 15 16 16 13 5
13 10 14 16 19 21 28 23 31 31 33 31 30 25 23 21 20 18 18 19 19 20 20 26 22 21 21 19 15 12 13 14
8 12 14 16 17 21 22 26 29 30 29 28 26 24 20 18 17 14 12 8 8 8 10 18 26 27 24 22 21 14 16 17
4 23 11 13 10 16 20 26 21 20 21 20 18 17 14 12 9 7 6 6 5 4 2 1 0 7 16 20 22 19 15 18
9 14 19 22 14 14 15 15 15 14 15 13 13 11 9 6 4 4 5 7 9 12 12 12 10 13 17 25 24 23 20 16
Wind_Direction_500mb
211 212 221 201 221 234 245 249 254 211 221 247 244 249 199 193 195 200 203 202 201 200 200 200 202 203 205 207 212 215 216 217
205 227 221 241 208 224 231 236 229 239 242 238 176 164 135 195 208 206 205 204 203 202 200 199 200 202 206 208 214 214 213 215
201 208 214 200 233 223 227 229 233 232 234 206 230 300 311 300 226 206 202 203 202 202 202 202 200 200 205 207 215 212 212 214
205 227 225 221 215 223 220 217 230 255 229 93 123 160 3 11 334 222 195 195 196 196 197 199 201 202 204 205 209 217 219 217
232 184 215 231 228 222 226 239 220 225 232 151 134 77 28 33 42 179 193 192 190 192 195 198 199 202 204 208 208 211 219 219
225 225 208 213 227 226 226 223 228 219 237 230 183 170 16 53 53 108 183 187 189 193 198 202 204 205 206 207 209 207 211 213
248 266 256 201 215 223 226 233 227 230 225 242 251 15 44 17 70 89 127 172 185 192 200 204 207 208 209 210 210 210 214 216
250 234 235 246 219 216 224 230 242 249 248 233 45 92 54 42 78 88 89 79 83 149 199 211 213 211 211 212 214 211 213 218
240 203 220 233 219 222 221 221 228 234 240 255 92 56 37 30 61 72 62 72 92 166 187 167 199 216 219 217 214 214 218 221
263 201 218 127 66 257 230 148 230 255 36 56 108 88 60 50 65 70 62 72 78 94 133 216 208 191 204 206 205 205 210 213
249 220 108 132 149 170 170 156 160 164 125 122 129 107 60 51 65 68 72 75 78 88 110 127 154 196 172 175 208 207 208 202
219 260 208 104 122 125 234 161 144 154 150 158 183 221 113 94 88 84 80 88 96 101 102 110 116 139 179 168 167 175 199 217
230 242 95 66 6 199 219 102 140 160 152 171 186 68 141 123 108 96 84 71 69 73 84 90 96 134 136 143 155 196 210 197
238 232 220 2 201 261 1 76 105 110 106 119 120 124 129 131 116 103 95 86 77 77 75 82 95 80 101 93 89 118 170 196
0 33 50 36 40 20 52 88 104 98 102 116 119 122 125 126 122 112 100 89 78 78 77 73 78 88 91 88 80 71 58 94
203 79 62 52 47 59 66 79 102 101 104 102 102 104 110 116 114 112 106 99 93 85 79 77 79 81 86 85 72 71 55 47
89 108 101 57 42 47 58 84 94 92 93 100 101 95 89 94 104 116 119 102 94 93 77 51 47 57 64 68 73 49 67 53
81 136 83 93 45 56 70 69 70 81 79 73 82 89 94 89 73 58 20 27 49 357 347 268 227 325 336 19 43 39 45 46
137 109 108 120 85 71 59 73 66 63 69 59 40 38 29 21 16 301 338 328 327 315 324 314 301 284 277 255 267 296 333 21
Wind_Speed_850mb
34 39 47 46 48 46 43 35 26 23 27 17 19 9 19 27 38 56 65 68 69 69 70 68 66 64 62 60 62 61 61 62
45 33 39 42 36 40 32 45 38 33 32 15 24 17 12 16 31 48 62 67 66 66 69 70 70 66 63 64 67 65 61 62
29 41 47 29 30 37 36 38 32 31 33 23 27 3 7 9 18 39 52 65 67 63 64 68 66 65 64 66 70 67 64 61
41 39 42 50 48 44 32 46 37 29 28 15 15 1 12 11 5 20 50 59 62 62 60 58 62 63 63 60 65 75 70 66
36 22 24 37 45 51 46 35 41 33 33 24 19 11 14 14 11 9 30 43 53 54 58 61 62 62 61 64 62 65 76 71
30 36 32 39 47 49 49 37 37 40 43 30 17 2 12 15 11 8 19 35 45 49 50 51 52 56 60 56 57 60 61 64
42 27 26 40 41 50 50 49 44 37 44 39 28 6 14 11 11 13 13 20 32 37 37 39 41 41 45 47 50 52 59 63
30 36 30 32 41 39 49 50 44 43 32 4 18 13 9 9 12 15 14 10 9 10 19 27 31 35 38 43 46 47 55 54
27 27 34 39 37 35 30 33 39 44 39 13 14 18 15 11 17 16 15 13 9 6 12 18 19 27 33 34 37 41 41 42
17 15 32 9 6 11 20 10 8 4 16 21 27 27 24 18 14 15 13 11 10 7 5 15 26 20 24 28 32 35 35 37
18 24 14 17 14 14 27 20 4 4 16 28 26 26 24 19 14 13 12 12 12 13 10 10 9 21 25 19 22 25 29 31
20 25 25 24 17 3 7 17 15 13 21 27 18 11 5 12 16 17 16 14 14 14 13 14 16 15 22 27 30 36 34 32
25 22 12 13 4 8 15 8 14 14 16 18 10 5 28 19 17 16 18 17 19 19 18 16 10 12 16 17 16 24 32 32
25 23 16 22 8 8 9 11 17 17 15 26 33 33 27 23 16 14 16 15 16 18 20 19 18 14 17 16 16 14 13 18
9 8 10 17 18 13 7 14 26 29 26 28 28 28 25 22 18 16 13 15 14 15 17 16 18 14 16 15 16 16 13 5
13 10 14 16 19 21 28 23 31 31 33 31 30 25 23 21 20 18 18 19 19 20 20 26 22 21 21 19 15 12 13 14
8 12 14 16 17 21 22 26 29 30 29 28 26 24 20 18 17 14 12 8 8 8 10 18 26 27 24 22 21 14 16 17
4 23 11 13 10 16 20 26 21 20 21 20 18 17 14 12 9 7 6 6 5 4 2 1 0 7 16 20 22 19 15 18
9 14 19 22 14 14 15 15 15 14 15 13 13 11 9 6 4 4 5 7 9 12 12 12 10 13 17 25 24 23 20 16
Wind_Direction_850mb
211 212 221 201 221 234 245 249 254 211 221 247 244 249 199 193 195 200 203 202 201 200 200 200 202 203 205 207 212 215 216 217
205 227 221 241 208 224 231 236 229 239 242 238 176 164 135 195 208 206 205 204 203 202 200 199 200 202 206 208 214 214 213 215
201 208 214 200 233 223 227 229 233 232 234 206 230 300 311 300 226 206 202 203 202 202 202 202 200 200 205 207 215 212 212 214
205 227 225 221 215 223 220 217 230 255 229 93 123 160 3 11 334 222 195 195 196 196 197 199 201 202 204 205 209 217 219 217
232 184 215 231 228 222 226 239 220 225 232 151 134 77 28 33 42 179 193 192 190 192 195 198 199 202 204 208 208 211 219 219
225 225 208 213 227 226 226 223 228 219 237 230 183 170 16 53 53 108 183 187 189 193 198 202 204 205 206 207 209 207 211 213
248 266 256 201 215 223 226 233 227 230 225 242 251 15 44 17 70 89 127 172 185 192 200 204 207 208 209 210 210 210 214 216
250 234 235 246 219 216 224 230 242 249 248 233 45 92 54 42 78 88 89 79 83 149 199 211 213 211 211 212 214 211 213 218
240 203 220 233 219 222 221 221 228 234 240 255 92 56 37 30 61 72 62 72 92 166 187 167 199 216 219 217 214 214 218 221
263 201 218 127 66 257 230 148 230 255 36 56 108 88 60 50 65 70 62 72 78 94 133 216 208 191 204 206 205 205 210 213
249 220 108 132 149 170 170 156 160 164 125 122 129 107 60 51 65 68 72 75 78 88 110 127 154 196 172 175 208 207 208 202
219 260 208 104 122 125 234 161 144 154 150 158 183 221 113 94 88 84 80 88 96 101 102 110 116 139 179 168 167 175 199 217
230 242 95 66 6 199 219 102 140 160 152 171 186 68 141 123 108 96 84 71 69 73 84 90 96 134 136 143 155 196 210 197
238 232 220 2 201 261 1 76 105 110 106 119 120 124 129 131 116 103 95 86 77 77 75 82 95 80 101 93 89 118 170 196
0 33 50 36 40 20 52 88 104 98 102 116 119 122 125 126 122 112 100 89 78 78 77 73 78 88 91 88 80 71 58 94
203 79 62 52 47 59 66 79 102 101 104 102 102 104 110 116 114 112 106 99 93 85 79 77 79 81 86 85 72 71 55 47
89 108 101 57 42 47 58 84 94 92 93 100 101 95 89 94 104 116 119 102 94 93 77 51 47 57 64 68 73 49 67 53
81 136 83 93 45 56 70 69 70 81 79 73 82 89 94 89 73 58 20 27 49 357 347 268 227 325 336 19 43 39 45 46
137 109 108 120 85 71 59 73 66 63 69 59 40 38 29 21 16 301 338 328 327 315 324 314 301 284 277 255 267 296 333 21